SAS89L EKCH-EDDS

Flight info

Callsign SAS89L
Flight time N/A
Altitude 23000
Route NEXEN T503 MICOS Z990 RAMAR/N0447F370 Z990 HLZ/N0457F310 M852 POVEL/N0448F380 DCT UPDAT DCT BERXO/N0447F370 DCT SILWE DCT OSBIT P605 TOSTU T726 LBU
Aircraft A319/M-SDE3FGHIRWY/LB1

Departure

Time 2026-04-25 06:03
Airport Copenhagen Kastrup Airport (EKCH)

Arrival

Time N/A
Airport Stuttgart Airport (EDDS)
Time Latitude Longitude Altitude Speed Heading
2026-04-25 05:43 55.62555 12.64901 18 ft 0 kts 89°
2026-04-25 05:51 55.62555 12.64897 19 ft 1 kts 90°
2026-04-25 05:51 55.62554 12.64871 19 ft 2 kts 78°
2026-04-25 05:52 55.62550 12.64846 19 ft 2 kts 66°
2026-04-25 05:52 55.62542 12.64823 19 ft 2 kts 53°
2026-04-25 05:52 55.62532 12.64804 19 ft 2 kts 40°
2026-04-25 05:52 55.62520 12.64789 19 ft 2 kts 28°
2026-04-25 05:53 55.62506 12.64779 19 ft 2 kts 15°
2026-04-25 05:53 55.62492 12.64774 18 ft 2 kts
2026-04-25 05:53 55.62477 12.64775 18 ft 2 kts 356°
2026-04-25 05:53 55.62461 12.64776 18 ft 2 kts 359°
2026-04-25 05:54 55.62447 12.64777 17 ft 2 kts 358°
2026-04-25 05:54 55.62432 12.64775 17 ft 2 kts 25°
2026-04-25 05:54 55.62412 12.64737 17 ft 2 kts 77°
2026-04-25 05:55 55.62412 12.64710 17 ft 2 kts 104°
2026-04-25 05:55 55.62415 12.64695 17 ft 0 kts 122°
2026-04-25 05:55 55.62419 12.64685 17 ft 0 kts 124°
2026-04-25 05:57 55.62407 12.64716 17 ft 6 kts 124°
2026-04-25 05:58 55.62365 12.64825 16 ft 13 kts 124°
2026-04-25 05:58 55.62312 12.64965 17 ft 13 kts 124°
2026-04-25 05:58 55.62257 12.65109 17 ft 7 kts 124°
2026-04-25 05:58 55.62255 12.65115 17 ft 0 kts 124°
2026-04-25 05:59 55.62254 12.65118 17 ft 0 kts 124°
2026-04-25 06:00 55.62249 12.65131 17 ft 3 kts 125°
2026-04-25 06:00 55.62222 12.65164 16 ft 6 kts 168°
2026-04-25 06:00 55.62169 12.65134 15 ft 9 kts 212°
2026-04-25 06:00 55.62095 12.65048 15 ft 18 kts 213°
2026-04-25 06:01 55.61969 12.64905 15 ft 21 kts 214°
2026-04-25 06:01 55.61849 12.64766 15 ft 20 kts 213°
2026-04-25 06:01 55.61733 12.64632 15 ft 19 kts 214°
2026-04-25 06:01 55.61656 12.64497 15 ft 15 kts 257°
2026-04-25 06:02 55.61647 12.64308 16 ft 15 kts 268°
2026-04-25 06:02 55.61637 12.64122 19 ft 14 kts 252°
2026-04-25 06:02 55.61570 12.63985 20 ft 18 kts 223°
2026-04-25 06:02 55.61448 12.63790 21 ft 27 kts 219°
2026-04-25 06:03 55.61295 12.63559 21 ft 28 kts 221°
2026-04-25 06:03 55.61016 12.63105 19 ft 95 kts 226°
2026-04-25 06:03 55.60322 12.62055 19 ft 163 kts 222°
2026-04-25 06:03 55.59401 12.60752 637 ft 176 kts 229°
2026-04-25 06:04 55.58424 12.59302 1298 ft 197 kts 230°
2026-04-25 06:04 55.57361 12.57612 2072 ft 218 kts 231°
2026-04-25 06:04 55.56186 12.55787 2865 ft 238 kts 228°
2026-04-25 06:04 55.54790 12.53979 3604 ft 261 kts 221°
2026-04-25 06:05 55.53244 12.52200 4368 ft 275 kts 222°
2026-04-25 06:05 55.51669 12.50312 5047 ft 277 kts 223°
2026-04-25 06:05 55.50115 12.48447 6153 ft 276 kts 223°
2026-04-25 06:05 55.48540 12.46546 7254 ft 275 kts 224°
2026-04-25 06:06 55.46978 12.44646 8247 ft 278 kts 224°